Catterall, United Kingdom
Current Conditions -  °F | °C
As of 7:50 AM on Monday 24 Nov 2014 (Local Time) from EGGP Reporting Station
Scattered Clouds Scattered Clouds  
Wind Chill: 37°   Ceiling: Unl
Heat Index: 41°   Visibility: 6mi
Dew Point: 37°   Wind: 6mph
Humidity: 87%   Direction: 200°SSW
Pressure: 30.24"   Gusts: NA
Location:  53.88°N, 2.76°W
Report Text: EGGP 240750Z 20005KT 9999 FEW027 SCT036 05/03 Q1024
Loading
Personal Weather Stations






























Interactive Weather Map New forecast layout! Learn more

10-Day Weather Forecast

Advertisements
Track Severe Weather on mobile